TimeMST,TemperatureF,Dew PointF,Humidity,Sea Level PressureIn,VisibilityMPH,Wind Direction,Wind SpeedMPH,Gust SpeedMPH,PrecipitationIn,Events,Conditions,WindDirDegrees,DateUTC
12:53 AM,36.0,28.9,76,30.14,10.0,SW,9.2,-,N/A,,Overcast,230,2013-01-08 07:53:00
1:53 AM,30.9,26.1,82,30.17,10.0,WSW,8.1,-,N/A,,Partly Cloudy,250,2013-01-08 08:53:00
2:53 AM,30.9,25.0,79,30.17,10.0,SW,11.5,-,N/A,,Partly Cloudy,230,2013-01-08 09:53:00
3:53 AM,33.1,26.1,75,30.18,10.0,SW,10.4,-,N/A,,Mostly Cloudy,230,2013-01-08 10:53:00
4:53 AM,35.1,28.0,76,30.17,10.0,SW,11.5,20.7,N/A,,Mostly Cloudy,220,2013-01-08 11:53:00
5:53 AM,35.1,27.0,72,30.15,10.0,SW,16.1,-,N/A,,Partly Cloudy,230,2013-01-08 12:53:00
7:53 AM,37.0,28.9,73,30.17,10.0,SW,11.5,-,N/A,,Overcast,230,2013-01-08 14:53:00
8:53 AM,37.9,28.9,70,30.19,10.0,SW,10.4,-,N/A,,Overcast,230,2013-01-08 15:53:00
9:53 AM,37.9,30.0,73,30.22,10.0,WSW,5.8,-,N/A,,Overcast,250,2013-01-08 16:53:00
10:53 AM,39.0,30.0,70,30.23,10.0,SW,9.2,-,N/A,,Overcast,220,2013-01-08 17:53:00
11:53 AM,39.0,30.0,70,30.22,10.0,SW,8.1,-,N/A,,Overcast,230,2013-01-08 18:53:00
12:13 PM,39.2,30.2,70,30.22,10.0,WSW,8.1,-,N/A,,Overcast,250,2013-01-08 19:13:00
12:53 PM,39.9,30.0,68,30.20,10.0,Calm,Calm,-,N/A,,Overcast,0,2013-01-08 19:53:00
1:53 PM,39.9,30.9,70,30.20,10.0,SSW,3.5,-,N/A,,Overcast,200,2013-01-08 20:53:00
2:53 PM,42.1,30.9,65,30.19,10.0,South,6.9,-,N/A,,Overcast,190,2013-01-08 21:53:00
3:53 PM,41.0,30.9,67,30.21,10.0,South,10.4,-,N/A,,Overcast,180,2013-01-08 22:53:00
4:53 PM,41.0,30.9,67,30.21,10.0,Variable,5.8,-,N/A,,Overcast,0,2013-01-08 23:53:00
5:53 PM,39.9,30.9,70,30.23,10.0,SSW,6.9,-,N/A,,Overcast,210,2013-01-09 00:53:00
6:53 PM,39.9,32.0,73,30.23,10.0,South,9.2,-,0.00,,Overcast,180,2013-01-09 01:53:00
7:53 PM,41.0,32.0,70,30.23,10.0,SSE,5.8,-,0.00,,Overcast,160,2013-01-09 02:53:00
8:53 PM,41.0,32.0,70,30.24,10.0,South,9.2,-,N/A,,Overcast,170,2013-01-09 03:53:00
9:53 PM,41.0,32.0,70,30.23,10.0,SSE,10.4,-,0.00,,Overcast,160,2013-01-09 04:53:00
10:53 PM,41.0,30.9,67,30.23,10.0,SSE,10.4,-,N/A,,Overcast,160,2013-01-09 05:53:00
11:53 PM,41.0,30.9,67,30.23,10.0,SSE,16.1,-,N/A,,Overcast,150,2013-01-09 06:53:00